Regional Weather Roundup
Issued by NWS

Home | Current Version | Previous Version | Text Only | Print | Product List | Glossary Off
Versions: 1 2 3 4 5 6 7 8 9 10 11 12 13 14 15 16 17 18 19 20 21 22 23 24 25 26 27 28 29 30 31 32 33 34 35 36 37 38 39 40 41 42 43 44 45 46 47 48 49 50

198
ASUS43 KMPX 141410
RWRMN
WEATHER ROUNDUP FOR MINNESOTA
NATIONAL WEATHER SERVICE TWIN CITIES/CHANHASSEN MN
800 AM CST SUN FEB 14 2016


NOTE: "FAIR" INDICATES FEW OR NO CLOUDS BELOW 12,000 FEET WITH NO
SIGNIFICANT WEATHER AND/OR OBSTRUCTIONS TO VISIBILITY. N/A MEANS
CURRENT SKY AND/OR WEATHER CONDITIONS ARE NOT AVAILABLE.

MNZ060>063-068>070-141500-
   Twin Cities Metro

CITY           SKY/WX    TMP DP  RH WIND       PRES   REMARKS
TWIN CITIES    CLOUDY    11   3  70 SE16      30.07F WCI  -6
ST PAUL        CLOUDY    12   3  67 SE14      30.09F WCI  -3
CRYSTAL        CLOUDY    13   3  64 SE10      30.05F WCI   0
BLAINE         CLOUDY    12   3  67 SE10      30.05F WCI  -1
LAKEVILLE      LGT SNOW  10   7  85 SE8G17    30.04F WCI  -1
EDEN PRAIRIE   CLOUDY    13   4  67 SE12      30.04F WCI  -1
SOUTH ST PAUL  CLOUDY    13   3  64 SE10      30.07F WCI   0
LAKE ELMO      CLOUDY    12   1  62 SE8       30.08S WCI   1
$$
MNZ001>005-007-008-013>017-022>024-027-028-141500-
   Northwest Minnesota

CITY           SKY/WX    TMP DP  RH WIND       PRES   REMARKS
BEMIDJI        CLOUDY     7   1  76 SE10      29.92F WCI  -8
HALLOCK        LGT SNOW  14  10  85 S23       29.83F WCI  -5
ROSEAU         LGT SNOW  10   7  85 S12       29.87F WCI  -4
WARROAD        LGT SNOW   9   3  78 S13       29.89S WCI  -7
THIEF RVR FALL CLOUDY    12   7  79 S17       29.87F WCI  -5
CROOKSTON      LGT SNOW  12   9  85 S21G28    29.88F WCI  -6
FOSSTON        LGT SNOW   9   5  85 S14       29.88F VSB 1   WCI  -8
DETROIT LAKES  LGT SNOW  12   9  85 SE15      29.89F WCI  -4
MOORHEAD       MIX PCPN  12   9  85 S22G29    29.90S WCI  -7
PARK RAPIDS    LGT SNOW   9   4  80 SE14      29.92F WCI  -7
MAHNOMEN       LGT SNOW  11   6  81 S14G23    29.88F WCI  -5
$$
MNZ006-009>011-018-025>026-141500-
   North Central Minnesota

CITY           SKY/WX    TMP DP  RH WIND       PRES   REMARKS
BAUDETTE       CLOUDY     7  -6  55 SE12      29.90F WCI  -8
FLAG ISLAND    LGT SNOW   7   0  72 S21       29.88F WCI -13
INTL FALLS     CLOUDY     4 -11  50 SE6       29.98F WCI  -7
WASKISH        CLOUDY     9   0  66 SE8       29.93F WCI  -4
LONGVILLE      LGT SNOW   7   0  72 SE12      29.97F WCI  -9
GRAND RAPIDS   CLOUDY     5  -8  56 SE10G16   29.98F WCI -10
CRANE LAKE     CLOUDY   -15 -18  84 SE1       30.06F
ORR            CLOUDY     0 -15  50 SE8       29.97F WCI -15
COOK           CLOUDY     0 -11  60 SE6       30.01F WCI -12
WALKER         LGT SNOW   6   0  77 SE6       29.95S WCI  -5
$$
MNZ012-019>021-037-141500-
   Northeast Minnesota

CITY           SKY/WX    TMP DP  RH WIND       PRES   REMARKS
DULUTH         CLOUDY     3  -8  60 SE10      30.05F WCI -12
ELY            CLOUDY    -6  -9  84 SE7       30.04F WCI -20
HIBBING        CLOUDY     0 -10  63 SE8       30.02F WCI -14
EVELETH        CLOUDY    -2  -9  71 NE6       30.04F WCI -14
DULUTH HARBOR  CLOUDY     7  -9  47 E5        30.15S WCI  -2
TWO HARBORS    CLOUDY    -4 -11  71 N3        30.08F
SILVER BAY     CLOUDY   -18 -26  69 CALM      30.10F
GRAND MARAIS     N/A     17   5  59 S13       30.19F WCI   4
G MARAIS ARPRT CLEAR      5  -4  66 S8        30.07F WCI  -8
$$
MNZ029>031-032-039>041-046>048-054>057-064-141500-
   West Central Minnesota

CITY           SKY/WX    TMP DP  RH WIND       PRES   REMARKS
FERGUS FALLS   LGT SNOW  12   9  85 SE16G22   29.94F WCI  -4
WHEATON        CLOUDY    14  12  92 SE15      29.92F WCI  -1
MORRIS         LGT SNOW  12   9  85 SE20      29.91F WCI  -6
ALEXANDRIA     SNOW      11   7  84 SE12      29.93F VSB 1/2 WCI  -3
ELBOW LAKE     CLOUDY    12   8  85 E17G24    29.92S FOG     WCI  -6
WADENA         LGT SNOW   9   3  78 SE12      29.93F WCI  -6
GLENWOOD       LGT SNOW  12   9  85 SE13      29.95S WCI  -3
APPLETON       LGT SNOW  14  10  85 SE13      29.93F WCI   0
BENSON         LGT SNOW  12   9  85 S14       29.94F WCI  -3
ORTONVILLE     CLOUDY    12  10  92 SE13      29.91F WCI  -3
MADISON        LGT SNOW  16  10  79 SE14      29.92F WCI   1
WILLMAR        LGT SNOW  14  10  85 SE16      29.98S WCI  -2
$$
MNZ033>034-036-042>043-049>051-058-059-141500-
   Central Minnesota

CITY           SKY/WX    TMP DP  RH WIND       PRES   REMARKS
ST CLOUD       CLOUDY    10   2  69 SE16      30.01F WCI  -7
SAUK CENTRE    FLURRIES  10   6  81 SE13      29.97S WCI  -5
PAYNESVILLE    LGT SNOW  12   8  82 SE10G20   29.99S WCI  -1
AITKIN         LGT SNOW   9   0  66 SE7       30.00S WCI  -3
PINE RIVER     LGT SNOW   7   1  78 SE8       30.00F WCI  -6
BRAINERD       LGT SNOW   7   2  80 SE8       29.99F WCI  -6
STAPLES        LGT SNOW   9   3  78 SE8       29.95F WCI  -4
LONG PRAIRIE   FLURRIES  10   5  79 SE9       29.97S WCI  -2
LITTLE FALLS   FLURRIES  10   1  67 SE10      30.00F WCI  -3
LITCHFIELD     CLOUDY    12  10  92 SE10G16   30.00F WCI  -1
BUFFALO        CLOUDY    11   3  69 SE10      30.04S WCI  -2
MAPLE LAKE     CLOUDY    12   6  75 SE7       30.03S WCI   2
$$
MNZ037-044-045-052-053-141500-
   East Central Minnesota

CITY           SKY/WX    TMP DP  RH WIND       PRES   REMARKS
PRINCETON      CLOUDY    10   5  79 SE8       30.03F WCI  -1
MORA           CLOUDY     9   1  72 SE8       30.07F WCI  -4
CAMBRIDGE      FLURRIES  10   1  67 E6        30.04F WCI   1
RUSH CITY      CLOUDY     9   2  74 SE9       30.08S WCI  -4
MOOSE LAKE     LGT SNOW   7  -6  56 S3        30.05S
HINCKLEY       LGT SNOW   9   0  66 SE3       30.07F
CLOQUET        CLOUDY     1 -11  55 E5        30.04F WCI  -8
MCGREGOR       CLOUDY     9  -4  56 SE9       30.03S WCI  -5
$$
MNZ071>073-080-081-089-090-097-098-141500-
   Southwest Minnesota

CITY           SKY/WX    TMP DP  RH WIND       PRES   REMARKS
MONTEVIDEO     LGT SNOW  12  10  92 S14       29.96F WCI  -3
GRANITE FALLS  FLURRIES  15  12  88 SE10      29.97S WCI   2
CANBY          FLURRIES  18  13  82 SE10      29.91F WCI   6
MARSHALL       FLURRIES  14  10  85 SE15      29.92F WCI  -1
REDWOOD FALLS  LGT SNOW  14  11  87 SE17      29.97F FOG     WCI  -3
OLIVIA         LGT SNOW  16  10  79 SE12      29.98R WCI   3
PIPESTONE      LGT SNOW  16   7  67 S13       29.85F WCI   2
WINDOM         SNOW      12  10  92 SE14G22   29.92F VSB 1/4 WCI  -3
WORTHINGTON    CLOUDY    12   7  79 SE13      29.90F WCI  -3
JACKSON        LGT SNOW  14  10  85 SE14      29.93F WCI  -1
TRACY          LGT SNOW  15  11  85 S13       29.92S WCI   1
SLAYTON        CLOUDY    12  11  94 SE16      29.89S FOG     WCI  -4
$$
MNZ065>067-074>077-082>085-091>093-141500-
   South Central Minnesota

CITY           SKY/WX    TMP DP  RH WIND       PRES   REMARKS
MANKATO        CLOUDY    16   9  73 S17G26    30.00F WCI   0
NEW ULM        LGT SNOW  12   9  85 SE14      29.98S WCI  -3
ST JAMES       LGT SNOW  16  12  86 SE15      29.98F WCI   1
FAIRMONT       CLOUDY    16  10  79 SE21      29.95F VSB 3/4 WCI  -2
GLENCOE        CLOUDY    15  11  84 SE12G17   30.01S WCI   2
FARIBAULT      CLOUDY    12   9  85 SE16      30.03F WCI  -4
OWATONNA       CLOUDY    12   7  79 SE17G24   30.01F WCI  -5
WASECA         LGT SNOW  14  10  85 SE17      30.02F WCI  -3
ALBERT LEA     LGT SNOW  12  10  92 SE14      30.00S WCI  -3
$$
MNZ078>079-086>088-094>096-141500-
   Southeast Minnesota

CITY           SKY/WX    TMP DP  RH WIND       PRES   REMARKS
ROCHESTER      CLOUDY    10   5  80 SE17      30.04F WCI  -8
RED WING       CLOUDY    12   1  62 SE13      30.10F WCI  -3
STANTON        LGT SNOW  13   6  72 SE13      30.05S WCI  -1
DODGE CENTER   FLURRIES  10   7  85 SE18      30.02F WCI  -8
WINONA         CLOUDY    14   5  67 SE7       30.16S WCI   4
AUSTIN         LGT SNOW  12  10  92 SE15G23   30.02F VSB 3/4 WCI  -4
PRESTON        FLURRIES  10   5  82 SE15      30.07F WCI  -7
$$
ABBREVIATIONS USED IN REMARKS
   TC - TEMPERATURES IN CELSIUS
  WCI - WIND CHILL INDEX
   HX - HEAT INDEX
  VSB - VISIBILITY
$$




USA.gov is the U.S. government's official web portal to all federal, state and local government web resources and services.